Hourly Weather Chabanivka

Today, 19 June, Saturday

Time Temperature Precipitation Wind Pressure Humidity
00:00 +22°C° 0 mm 1 mps 751 mmHg 78%
01:00 +21°C° 0 mm 2 mps 751 mmHg 80%
02:00 +22°C° 0 mm 1 mps 751 mmHg 78%
03:00 +22°C° 0 mm 1 mps 751 mmHg 80%
04:00 +21°C° 0 mm 1 mps 751 mmHg 80%
05:00 +21°C° 0 mm 1 mps 751 mmHg 81%
06:00 +21°C° 0 mm 1 mps 751 mmHg 82%
07:00 +22°C° 0 mm 1 mps 752 mmHg 82%
08:00 +24°C° 0 mm 1 mps 752 mmHg 78%
09:00 +26°C° 0 mm 2 mps 752 mmHg 66%
10:00 +27°C° 0 mm 2 mps 752 mmHg 61%
11:00 +27°C° 0 mm 3 mps 752 mmHg 62%
12:00 +28°C° 0 mm 3 mps 751 mmHg 63%
13:00 +29°C° 0 mm 3 mps 751 mmHg 60%
14:00 +29°C° 0 mm 3 mps 750 mmHg 60%
15:00 +29°C° 0 mm 3 mps 750 mmHg 59%
16:00 +29°C° 0 mm 3 mps 749 mmHg 59%
17:00 +27°C° 0 mm 5 mps 749 mmHg 74%
18:00 +26°C° 1.8 mm 3 mps 749 mmHg 81%
19:00 +26°C° 0 mm 1 mps 749 mmHg 81%
20:00 +26°C° 0 mm 2 mps 749 mmHg 77%
21:00 +24°C° 0 mm 3 mps 750 mmHg 77%
22:00 +23°C° 0 mm 2 mps 750 mmHg 79%
23:00 +21°C° 0 mm 2 mps 750 mmHg 80%

Tomorrow, 20 June, Sunday

Time Temperature Precipitation Wind Pressure Humidity
00:00 +21°C° 0 mm 2 mps 750 mmHg 79%
01:00 +21°C° 0 mm 2 mps 750 mmHg 77%
02:00 +20°C° 0 mm 2 mps 750 mmHg 76%
03:00 +20°C° 0 mm 2 mps 750 mmHg 74%
04:00 +20°C° 0 mm 2 mps 750 mmHg 73%
05:00 +20°C° 0 mm 2 mps 750 mmHg 72%
06:00 +21°C° 0 mm 1 mps 750 mmHg 72%
07:00 +21°C° 0 mm 0 mps 751 mmHg 73%
08:00 +24°C° 0 mm 1 mps 751 mmHg 68%
09:00 +23°C° 0 mm 0 mps 751 mmHg 65%
10:00 +24°C° 0 mm 0 mps 750 mmHg 63%
11:00 +25°C° 0 mm 0 mps 750 mmHg 62%
12:00 +26°C° 0 mm 0 mps 750 mmHg 62%
13:00 +29°C° 0 mm 2 mps 749 mmHg 61%
14:00 +30°C° 0 mm 2 mps 749 mmHg 61%
15:00 +30°C° 0 mm 4 mps 748 mmHg 63%
16:00 +30°C° 0 mm 3 mps 747 mmHg 65%
17:00 +30°C° 0 mm 3 mps 747 mmHg 65%
18:00 +30°C° 0 mm 3 mps 747 mmHg 57%
19:00 +29°C° 0 mm 4 mps 747 mmHg 63%
20:00 +27°C° 0 mm 2 mps 747 mmHg 73%
21:00 +26°C° 0 mm 2 mps 747 mmHg 77%
22:00 +26°C° 0 mm 1 mps 746 mmHg 75%
23:00 +25°C° 0 mm 1 mps 746 mmHg 75%

Day after tomorrow, 21 June, Monday

Time Temperature Precipitation Wind Pressure Humidity
00:00 +24°C° 0 mm 1 mps 747 mmHg 80%
01:00 +23°C° 0 mm 2 mps 746 mmHg 86%
02:00 +23°C° 0 mm 2 mps 746 mmHg 86%
03:00 +23°C° 0 mm 2 mps 746 mmHg 86%
04:00 +21°C° 0 mm 2 mps 746 mmHg 86%
05:00 +22°C° 0 mm 1 mps 746 mmHg 86%
06:00 +22°C° 0 mm 1 mps 746 mmHg 87%
07:00 +24°C° 0 mm 2 mps 747 mmHg 82%
08:00 +25°C° 0 mm 2 mps 747 mmHg 77%
09:00 +26°C° 0 mm 3 mps 747 mmHg 70%
10:00 +27°C° 0 mm 3 mps 747 mmHg 68%
11:00 +28°C° 0 mm 3 mps 747 mmHg 65%
12:00 +29°C° 0 mm 3 mps 747 mmHg 64%
13:00 +30°C° 0 mm 3 mps 746 mmHg 63%
14:00 +30°C° 0 mm 3 mps 745 mmHg 62%
15:00 +31°C° 0 mm 3 mps 745 mmHg 62%
16:00 +30°C° 0.1 mm 4 mps 745 mmHg 72%
17:00 +27°C° 1.2 mm 2 mps 745 mmHg 76%
18:00 +29°C° 0 mm 2 mps 745 mmHg 72%
19:00 +29°C° 0 mm 1 mps 745 mmHg 76%
20:00 +26°C° 0 mm 0 mps 745 mmHg 83%
21:00 +27°C° 0 mm 3 mps 745 mmHg 86%
22:00 +26°C° 0.1 mm 3 mps 746 mmHg 92%
23:00 +25°C° 0 mm 3 mps 746 mmHg 94%

22 June, Tuesday

Time Temperature Precipitation Wind Pressure Humidity
00:00 +24°C° 0 mm 2 mps 746 mmHg 96%
01:00 +24°C° 0 mm 2 mps 746 mmHg 96%
02:00 +23°C° 0 mm 2 mps 746 mmHg 96%
03:00 +22°C° 0 mm 3 mps 745 mmHg 96%
04:00 +22°C° 0 mm 3 mps 746 mmHg 94%
05:00 +22°C° 0 mm 3 mps 746 mmHg 93%
06:00 +22°C° 0 mm 3 mps 746 mmHg 93%
07:00 +24°C° 0 mm 3 mps 747 mmHg 92%
08:00 +24°C° 0 mm 3 mps 747 mmHg 92%
09:00 +24°C° 0 mm 3 mps 747 mmHg 91%
10:00 +25°C° 0 mm 3 mps 747 mmHg 89%
11:00 +26°C° 0 mm 3 mps 747 mmHg 88%
12:00 +27°C° 0 mm 3 mps 747 mmHg 85%
13:00 +29°C° 0 mm 3 mps 747 mmHg 79%
14:00 +30°C° 0 mm 3 mps 746 mmHg 77%
15:00 +31°C° 0 mm 2 mps 746 mmHg 73%
16:00 +32°C° 0 mm 5 mps 746 mmHg 75%
17:00 +29°C° 0.1 mm 3 mps 746 mmHg 76%
18:00 +29°C° 0 mm 1 mps 746 mmHg 74%
19:00 +29°C° 0 mm 1 mps 747 mmHg 81%
20:00 +27°C° 0.9 mm 2 mps 747 mmHg 89%
21:00 +26°C° 0 mm 1 mps 747 mmHg 89%
22:00 +26°C° 0 mm 1 mps 747 mmHg 86%
23:00 +25°C° 0 mm 1 mps 748 mmHg 92%

23 June, Wednesday

Time Temperature Precipitation Wind Pressure Humidity
00:00 +25°C° 0 mm 1 mps 748 mmHg 96%
01:00 +24°C° 0 mm 1 mps 748 mmHg 98%
02:00 +24°C° 0 mm 1 mps 748 mmHg 98%
03:00 +24°C° 0 mm 1 mps 748 mmHg 99%
04:00 +24°C° 0 mm 1 mps 748 mmHg 99%
05:00 +24°C° 0 mm 1 mps 749 mmHg 98%
06:00 +24°C° 0 mm 1 mps 749 mmHg 98%
07:00 +24°C° 0 mm 1 mps 750 mmHg 98%
08:00 +25°C° 0 mm 1 mps 750 mmHg 96%
09:00 +26°C° 0 mm 1 mps 750 mmHg 94%
10:00 +26°C° 0 mm 1 mps 750 mmHg 93%
11:00 +27°C° 0 mm 1 mps 750 mmHg 90%
12:00 +29°C° 0 mm 1 mps 750 mmHg 85%
13:00 +29°C° 0 mm 2 mps 750 mmHg 81%
14:00 +30°C° 0 mm 3 mps 750 mmHg 81%
15:00 +30°C° 0 mm 2 mps 750 mmHg 78%
16:00 +31°C° 0 mm 2 mps 750 mmHg 78%
17:00 +31°C° 0 mm 2 mps 750 mmHg 77%
18:00 +30°C° 0 mm 2 mps 750 mmHg 82%
19:00 +29°C° 0.1 mm 2 mps 750 mmHg 87%
20:00 +29°C° 0 mm 1 mps 750 mmHg 89%
21:00 +28°C° 0 mm 1 mps 750 mmHg 93%
22:00 +27°C° 0 mm 1 mps 750 mmHg 96%
23:00 +24°C° 0 mm 0 mps 751 mmHg 96%

24 June, Thursday

Time Temperature Precipitation Wind Pressure Humidity
00:00 +24°C° 0 mm 0 mps 751 mmHg 99%
01:00 +25°C° 0 mm 1 mps 750 mmHg 97%
02:00 +25°C° 0 mm 1 mps 751 mmHg 97%
03:00 +25°C° 0 mm 1 mps 751 mmHg 100%
04:00 +25°C° 0 mm 1 mps 751 mmHg 100%
05:00 +25°C° 0 mm 2 mps 751 mmHg 100%
06:00 +25°C° 0 mm 1 mps 751 mmHg 98%
07:00 +25°C° 0 mm 2 mps 752 mmHg 98%
08:00 +25°C° 0 mm 2 mps 752 mmHg 97%
09:00 +27°C° 0 mm 2 mps 752 mmHg 93%
10:00 +27°C° 0 mm 3 mps 752 mmHg 92%
11:00 +28°C° 0 mm 3 mps 752 mmHg 91%
12:00 +29°C° 0 mm 3 mps 752 mmHg 86%
13:00 +30°C° 0 mm 2 mps 752 mmHg 86%
14:00 +30°C° 0.1 mm 1 mps 751 mmHg 83%
15:00 +29°C° 4.5 mm 4 mps 751 mmHg 82%
16:00 +24°C° 5.5 mm 9 mps 752 mmHg 76%
17:00 +27°C° 0 mm 4 mps 751 mmHg 79%
18:00 +27°C° 0 mm 2 mps 751 mmHg 78%
19:00 +26°C° 0 mm 0 mps 752 mmHg 79%
20:00 +27°C° 0 mm 1 mps 752 mmHg 87%
21:00 +26°C° 0 mm 1 mps 752 mmHg 90%
22:00 +23°C° 0 mm 0 mps 752 mmHg 92%
23:00 +25°C° 0 mm 2 mps 752 mmHg 93%
Show more

We Need Your Consent

Meteoprog and our Service Providers may store and access personal data such as cookies, device identifiers or other similar technologies on your device and process such data to personalise content and ads, as well as provide social media features and to analyse the traffic.

  • Store and/or access information on your device

    Cookies, device identifiers or other information can be stored or accessed on your device for the purposes indicated above.

  • Personalised ads and content, ad and content measurement, audience insights, and products development

    Ads and content can be personalised based on a profile. More data can be added to better personalise ads and content. Ad and content performance can be measured. Insights about the audience who saw the ads and content can be derived. Such data can be used to develop or improve user’s experience, systems and software.

By clicking ‘I Agree’ you will allow the use of indicated cookies, device identifiers, web beacons or other similar technologies. Your settings can be changed in the browser on your device.

For certain purposes, legitimate interests may be relied on, rather than consent. You can read more about this in our Privacy and Cookie Policy.